Date String (YYYY-MM-DD hh:mm:ss) UTC,Instrument flags,Ambient pressure (hPa),Sample flow (lpm),Bypass flow (lpm),Sample temperature (°C),Ambient temperature (°C),ASC tube jacket temperature (°C),LED temperature (°C),Box temperature (°C),Sample RH (%),Span deviation,Mass concentration (μg/m³),Mass concentration (μg/m³),Mass concentration (μg/m³)
DateTimeUTC,F1_M11,P_M11,Q1_M11,Q2_M11,T1_M11,T2_M11,T3_M11,T4_M11,T5_M11,U1_M11,ZSPAN_M11,X2_M11,X0_M11,X1_M11
2022-12-22 05:00:00,,0824.8,4.99,0.00,21.1,21.5,00.0,29.7,22.8,03.3,0002.6,0005.54,0011.28,0004.26
2022-12-22 05:01:00,,0824.7,5.03,0.00,21.2,21.9,00.0,29.7,23.0,03.3,0002.8,0005.54,0011.44,0004.28
2022-12-22 05:02:00,,0824.7,4.96,0.00,21.3,21.7,00.0,29.8,22.9,03.3,0002.7,0005.57,0011.67,0004.30
2022-12-22 05:03:00,,0824.8,5.06,0.00,21.1,20.3,00.0,29.9,22.5,03.3,0002.8,0005.64,0011.85,0004.33
2022-12-22 05:04:00,,0824.8,4.95,0.00,20.9,19.1,00.0,29.9,22.0,03.4,0002.8,0005.72,0012.11,0004.34
2022-12-22 05:05:00,,0824.7,5.04,0.00,20.8,19.1,00.0,29.8,22.0,03.4,0003.1,0005.79,0012.43,0004.35
2022-12-22 05:06:00,,0824.6,4.98,0.00,20.9,20.1,00.0,29.7,22.3,03.4,0003.1,0005.73,0012.74,0004.34
2022-12-22 05:07:00,,0824.6,5.01,0.00,21.0,20.8,00.0,29.7,22.5,03.4,0003.0,0005.68,0013.05,0004.32
2022-12-22 05:08:00,,0824.8,5.01,0.00,21.1,21.3,00.0,29.7,22.7,03.3,0002.7,0005.67,0012.81,0004.32
2022-12-22 05:09:00,,0824.8,4.96,0.00,21.2,21.7,00.0,29.7,22.9,03.3,0002.8,0005.65,0012.75,0004.31
2022-12-22 05:10:00,,0824.5,5.05,0.00,21.2,21.7,00.0,29.8,22.9,03.3,0003.0,0005.59,0012.44,0004.30
2022-12-22 05:11:00,,0824.6,4.98,0.00,21.1,20.4,00.0,29.9,22.5,03.3,0002.9,0005.54,0012.30,0004.30
2022-12-22 05:12:00,,0824.8,5.01,0.00,20.9,19.1,00.0,29.9,22.1,03.3,0002.6,0005.50,0012.04,0004.28
2022-12-22 05:13:00,,0824.7,5.06,0.00,20.8,19.2,00.0,29.8,22.0,03.4,0002.5,0005.48,0011.78,0004.27
2022-12-22 05:14:00,,0824.7,4.98,0.00,20.9,20.1,00.0,29.7,22.3,03.4,0002.3,0005.47,0011.66,0004.25
2022-12-22 05:15:00,,0824.9,4.97,0.00,21.0,20.8,00.0,29.7,22.6,03.4,0002.3,0005.45,0011.57,0004.23
2022-12-22 05:16:00,,0824.8,5.05,0.00,21.1,21.4,00.0,29.7,22.7,03.3,0001.4,0005.45,0011.51,0004.22
2022-12-22 05:17:00,,0824.6,4.96,0.00,21.2,21.8,00.0,29.7,22.9,03.3,0001.1,0005.45,0011.16,0004.22
2022-12-22 05:18:00,,0824.6,5.04,0.00,21.2,21.6,00.0,29.8,22.9,03.3,0001.1,0005.50,0010.73,0004.23
2022-12-22 05:19:00,,0824.6,4.96,0.00,21.1,20.3,00.0,29.9,22.4,03.3,0000.9,0005.46,0010.62,0004.20
2022-12-22 05:20:00,,0824.6,5.03,0.00,20.9,19.1,00.0,29.9,22.0,03.3,0000.5,0005.47,0010.80,0004.19
2022-12-22 05:21:00,,0824.6,5.00,0.00,20.8,19.2,00.0,29.8,22.0,03.4,-000.5,0005.47,0010.95,0004.18
2022-12-22 05:22:00,,0824.6,4.98,0.00,20.9,20.1,00.0,29.7,22.3,03.4,-000.8,0005.42,0010.91,0004.13
2022-12-22 05:23:00,,0824.7,5.04,0.00,21.0,20.8,00.0,29.7,22.5,03.3,-001.2,0005.39,0010.92,0004.09
2022-12-22 05:24:00,,0824.8,4.98,0.00,21.1,21.3,00.0,29.7,22.7,03.3,-001.6,0005.34,0010.90,0004.05
2022-12-22 05:25:00,,0824.9,4.98,0.00,21.2,21.7,00.0,29.7,22.9,03.3,-001.7,0005.25,0010.90,0004.01
2022-12-22 05:26:00,,0825.0,5.04,0.00,21.2,21.5,00.0,29.8,22.8,03.3,-001.4,0005.20,0010.79,0003.98
2022-12-22 05:27:00,,0825.0,4.95,0.00,21.1,19.9,00.0,29.8,22.3,03.3,-001.1,0005.09,0010.35,0003.94
2022-12-22 05:28:00,,0825.1,5.01,0.00,20.8,18.6,00.0,29.8,21.9,03.4,-001.3,0005.00,0010.13,0003.88
2022-12-22 05:29:00,,0825.3,5.02,0.00,20.7,18.9,00.0,29.8,21.8,03.4,-001.3,0004.93,0009.90,0003.83
2022-12-22 05:30:00,,0825.4,4.99,0.00,20.8,20.0,00.0,29.7,22.2,03.4,-001.0,0004.92,0009.92,0003.80
2022-12-22 05:31:00,,0825.3,4.99,0.00,20.9,20.9,00.0,29.7,22.5,03.3,-000.8,0004.92,0009.79,0003.78
2022-12-22 05:32:00,,0825.1,4.98,0.00,21.0,21.4,00.0,29.7,22.6,03.3,-000.2,0004.92,0009.72,0003.77
2022-12-22 05:33:00,,0825.0,5.05,0.00,21.1,21.8,00.0,29.7,22.8,03.3,0000.4,0004.92,0009.62,0003.78
2022-12-22 05:34:00,,0824.9,4.94,0.00,21.2,21.7,00.0,29.8,22.8,03.3,0000.8,0004.92,0009.53,0003.81
2022-12-22 05:35:00,,0824.9,5.04,0.00,21.0,20.0,00.0,29.8,22.3,03.3,0000.8,0004.94,0009.91,0003.82
2022-12-22 05:36:00,,0824.9,5.01,0.00,20.8,18.6,00.0,29.8,21.8,03.3,0000.9,0005.01,0010.74,0003.85
2022-12-22 05:37:00,,0824.8,4.97,0.00,20.7,18.8,00.0,29.7,21.8,03.4,0001.1,0005.02,0011.22,0003.85
2022-12-22 05:38:00,,0824.7,5.02,0.00,20.8,19.9,00.0,29.7,22.1,03.4,0001.9,0005.06,0011.34,0003.87
2022-12-22 05:39:00,,0824.6,5.01,0.00,20.9,20.8,00.0,29.6,22.4,03.3,0002.3,0005.14,0011.63,0003.91
2022-12-22 05:40:00,,0824.4,5.01,0.00,21.0,21.4,00.0,29.6,22.6,03.3,0001.9,0005.14,0011.83,0003.93
2022-12-22 05:41:00,,0824.4,4.98,0.00,21.1,21.9,00.0,29.7,22.8,03.3,0001.1,0005.15,0012.34,0003.94
2022-12-22 05:42:00,,0824.4,5.02,0.00,21.1,21.0,00.0,29.7,22.6,03.3,0001.4,0005.13,0012.38,0003.95
2022-12-22 05:43:00,,0824.5,4.98,0.00,20.9,19.9,00.0,29.8,22.3,03.3,0002.0,0005.10,0012.30,0003.96
2022-12-22 05:44:00,,0824.8,5.02,0.00,20.8,18.9,00.0,29.8,22.0,03.3,0002.3,0005.07,0012.24,0003.95
2022-12-22 05:45:00,,0825.1,5.02,0.00,20.7,19.2,00.0,29.7,22.0,03.3,0002.8,0005.08,0012.33,0003.95
2022-12-22 05:46:00,,0825.1,4.96,0.00,20.8,20.1,00.0,29.6,22.2,03.3,0003.1,0005.10,0012.04,0003.95
2022-12-22 05:47:00,,0824.9,5.04,0.00,20.9,20.9,00.0,29.6,22.5,03.3,0003.1,0005.06,0011.17,0003.95
2022-12-22 05:48:00,,0824.8,4.98,0.00,21.0,21.3,00.0,29.6,22.6,03.3,0002.8,0005.06,0010.85,0003.94
2022-12-22 05:49:00,,0824.8,4.98,0.00,21.1,21.7,00.0,29.7,22.8,03.3,0001.9,0005.01,0010.81,0003.93
2022-12-22 05:50:00,,0824.7,5.03,0.00,21.2,22.0,00.0,29.7,22.9,03.3,0001.2,0004.97,0010.77,0003.90
2022-12-22 05:51:00,,0824.5,4.97,0.00,21.2,21.3,00.0,29.8,22.7,03.2,0001.3,0004.96,0010.74,0003.88
2022-12-22 05:52:00,,0824.7,5.06,0.00,21.0,20.0,00.0,29.8,22.4,03.3,0001.1,0004.94,0011.06,0003.86
2022-12-22 05:53:00,,0824.9,4.99,0.00,20.8,19.0,00.0,29.8,22.0,03.3,0000.2,0004.92,0011.48,0003.85
2022-12-22 05:54:00,,0825.2,4.97,0.00,20.8,19.6,00.0,29.7,22.1,03.3,0000.2,0004.93,0011.53,0003.84
2022-12-22 05:55:00,,0825.3,5.02,0.00,20.9,20.5,00.0,29.7,22.4,03.3,0000.4,0004.96,0011.63,0003.83
2022-12-22 05:56:00,,0825.3,4.97,0.00,21.0,21.0,00.0,29.7,22.6,03.3,0000.5,0004.95,0011.63,0003.82
2022-12-22 05:57:00,,0825.1,5.05,0.00,21.1,21.4,00.0,29.7,22.7,03.2,0000.3,0004.93,0011.56,0003.81
2022-12-22 05:58:00,,0825.0,4.97,0.00,21.2,21.7,00.0,29.7,22.9,03.2,0000.3,0004.92,0011.94,0003.81
2022-12-22 05:59:00,,0825.1,4.98,0.00,21.3,22.0,00.0,29.7,23.0,03.2,0000.3,0004.90,0011.84,0003.81
